EHI
0 0 0 0 0 0 0 0 0 0 0 0 0 0 0 0 0 0 0 0 0 0 0 0 0 0 0 0 0 0 0 0 0 0 0 0 0 0
0 0 0 0 0 0 0 0 0 0 0 0 0 0 0 0 0 0 0 0 0 0 0 0 0 0 0 0 0 0 0 0 0 0 0 0 0 0
0 0 0 0 0 0 0 0 0 0 0 0 0 0 0 0 0 0 0 0 0 0 0 0 0 0 0 0 0 0 0 0 0 0 0 0 0 0
0 0 0 0 0 0 0 0 0 0 0 0 0 0 0 0 0 0 0 0 0 0 0 0 0 0 0 0 0 0 0 0 0 0 0 0 0 0
0 0 0 0 0 0 0 0 0 0 0 0 0 0 0 0 0 0 0 0 0 0 0 0 0 0 0 0 0 0 0 0 0 0 0 0 0 0
0 0 0 0 0 0 0 0 0 0 0 0 0 0 0 0 0 0 0 0 0 0 0 0 0 0 0 0 0 0 0 0 0 0 0 0 0 0
0 0 0 0 0 0 0 0 0 0 0 0 0 0 0 0 0 0 0 0 0 0 0 0 0 0 0 0 0 0 0 0 0 0 0 0 0 0
0 0 0 0 0 0 0 0 0 0 0 0 0 0 0 0 0 0 0 0 0 0 0 0 0 0 0 0 0 0 0 0 0 0 0 0 0 0
0 0 0 0 0 0 0 0 0 0 0 0 0 0 0 0 0 0 0 0 0 0 0 0 0 0 0 0 0 0 0 0 0 0 0 0 0 0
0 0 0 0 0 0 0 0 0 0 0 0 0 0 0 0 0 0 0 0 0 0 0 0 0 0 0 0 0 0 0 0 0 0 0 0 0 0
0 0 0 0 0 0 0 0 0 0 0 0 0 0 0 0 0 0 0 0 0 0 0 0 0 0 0 0 0 0 0 0 0 0 0 0 0 0
0 0 0 0 0 0 0 0 0 0 0 0 0 0 0 0 0 0 0 0 0 0 0 0 0 0 0 0 0 0 0 0 0 0 0 0 0 0
0 0 0 0 0 0 0 0 0 0 0 0 0 0 0 0 0 0 0 0 0 0 0 0 0 0 0 0 0 0 0 0 0 0 0 0 0 0
0 0 0 0 0 0 0 0 0 0 0 0 0 0 0 0 0 0 0 0 0 0 0 0 0 0 0 0 0 0 0 0 0 0 0 0 0 0
0 0 0 0 0 0 0 0 0 0 0 0 0 0 0 0 0 0 0 0 0 0 0 0 0 0 0 0 0 0 0 0 0 0 0 0 0 0
0 0 0 0 0 0 0 0 0 0 0 0 0 0 0 0 0 0 0 0 0 0 0 0 0 0 0 0 0 0 0 0 0 0 0 0 0 0
0 0 0 0 0 0 0 0 0 0 0 0 0 0 0 0 0 0 0 0 0 0 0 0 0 0 0 0 0 0 0 0 0 0 0 0 0 0
0 0 0 0 0 0 0 0 0 0 0 0 0 0 0 0 0 0 0 0 0 0 0 0 0 0 0 0 0 0 0 0 0 0 0 0 0 0
0 0 0 0 0 0 0 0 0 0 0 0 0 0 0 0 0 0 0 0 0 0 0 0 0 0 0 0 0 0 0 0 0 0 0 0 0 0
0 0 0 0 0 0 0 0 0 0 0 0 0 0 0 0 0 0 0 0 0 0 0 0 0 0 0 0 0 0 0 0 0 0 0 0 0 0
0 0 0 0 0 0 0 0 0 0 0 0 0 0 0 0 0 0 0 0 0 0 0 0 0 0 0 0 0 0 0 0 0 0 0 0 0 0
0 0 0 0 0 0 0 0 0 0 0 0 0 0 0 0 0 0 0 0 0 0 0 0 0 0 0 0 0 0 0 0 0 0 0 0 0 0
0 0 0 0 0 0 0 0 0 0 0 0 0 0 0 0 0 0 0 0 0 0 0 0 0 0 0 0 0 0 0 0 0 0 0 0 0 0
Wind_Speed
2 3 3 2 3 3 3 4 4 4 4 4 2 2 2 2 2 3 4 3 4 4 5 4 4 4 4 5 6 6 7 7 7 8 7 8 9 10
2 3 3 2 2 3 3 3 4 4 4 2 3 2 2 2 3 4 4 4 4 5 4 4 4 5 6 7 7 8 8 8 8 9 9 9 10 10
2 2 3 3 3 2 3 3 3 3 4 3 2 2 3 3 3 3 3 4 4 5 5 5 5 6 6 7 7 8 8 8 9 9 10 10 10 10
2 2 3 2 3 3 2 3 3 4 4 4 3 2 3 3 3 3 3 3 4 5 6 7 7 6 6 7 8 8 8 8 8 9 10 11 11 11
2 3 3 3 3 3 3 3 2 2 3 3 3 2 2 2 3 3 3 3 4 4 6 8 7 6 6 7 8 8 8 8 9 9 9 10 10 10
2 2 2 3 3 3 3 3 3 3 3 3 2 2 2 2 2 2 3 3 3 3 4 5 5 6 6 6 7 7 8 8 9 9 9 9 9 10
1 2 2 2 2 2 2 2 3 3 3 3 3 2 2 2 3 2 3 3 3 2 3 3 3 4 5 6 7 6 8 8 9 9 9 9 9 9
2 1 1 1 1 1 2 2 3 3 4 3 3 4 4 3 3 3 2 2 3 2 3 3 3 4 4 4 5 6 7 7 8 8 8 8 8 8
2 1 1 1 1 1 1 1 2 2 3 4 4 5 4 4 3 4 4 4 4 2 3 4 3 4 4 4 5 7 7 7 6 6 6 7 7 7
1 2 2 1 1 1 1 1 2 2 3 4 4 4 3 3 4 4 4 4 3 2 3 4 3 4 4 4 5 6 7 7 7 7 7 7 7 7
1 1 2 2 1 1 2 2 2 2 2 2 2 2 2 2 2 2 2 3 3 3 2 3 3 4 4 4 4 5 6 6 7 8 8 8 7 7
1 1 1 2 1 1 2 2 3 3 2 2 2 2 3 2 3 3 3 3 3 3 2 3 2 2 3 2 3 3 4 6 7 8 8 8 8 6
1 1 1 1 2 2 3 3 3 3 2 2 2 2 2 2 2 3 3 3 3 3 1 2 2 2 3 3 3 3 3 3 4 5 7 8 8 7
2 2 1 2 2 3 3 3 3 3 2 2 2 2 2 2 2 2 2 3 3 3 3 2 3 3 3 4 4 3 4 4 4 4 4 6 8 9
2 2 3 3 3 2 2 2 2 2 2 2 2 2 2 2 2 2 2 2 3 3 2 3 3 3 4 4 4 4 4 4 4 4 4 4 4 5
2 2 2 3 2 2 2 2 2 2 2 2 2 2 2 2 2 2 2 2 2 2 2 3 4 4 4 5 5 5 4 4 3 4 4 5 5 5
2 2 2 2 2 2 2 2 2 2 2 2 2 2 2 2 2 2 2 2 3 3 3 2 2 3 5 5 5 5 5 4 4 4 4 5 5 5
3 2 2 2 2 2 2 2 2 2 2 2 2 2 2 3 2 2 2 3 3 4 3 3 2 3 3 4 6 6 5 4 4 4 4 5 6 5
3 2 2 2 2 2 2 3 3 2 2 2 3 3 3 3 3 3 3 3 4 4 3 3 3 3 4 5 3 5 5 4 4 4 5 5 7 6
2 2 2 3 3 3 3 3 3 3 3 3 3 3 3 3 3 3 4 4 4 4 4 3 4 4 5 4 4 4 6 6 5 5 5 5 6 7
2 2 3 3 3 3 3 3 3 3 3 3 3 3 3 4 4 4 4 5 4 4 4 4 3 3 3 2 4 4 4 6 6 5 5 5 6 5
3 3 3 3 3 3 3 3 3 4 4 4 4 4 4 4 4 5 4 4 4 4 4 3 2 2 3 4 5 5 5 4 5 7 9 8 5 5
3 3 3 3 3 3 3 4 4 4 4 4 4 4 4 4 4 4 4 4 4 4 3 3 3 3 3 4 5 5 5 5 4 4 4 6 9 12
Wind_Direction
216 216 218 212 211 219 217 220 232 239 240 229 225 222 236 244 255 248 249 248 252 261 265 262 268 264 251 246 247 246 246 242 242 243 246 249 248 249
221 220 224 216 211 213 219 231 238 244 249 240 236 230 230 239 249 248 247 249 244 254 258 257 257 257 252 246 241 241 243 242 244 244 244 249 250 252
217 219 229 230 214 217 222 225 228 233 244 252 253 250 238 242 241 245 249 250 241 244 248 252 254 255 253 246 242 243 243 243 244 245 248 250 253 257
213 212 222 223 218 219 218 226 232 234 234 242 247 248 250 253 261 255 259 262 257 246 247 253 253 253 252 245 242 241 242 242 244 246 250 252 254 259
223 219 222 218 221 220 219 223 226 232 236 237 248 267 272 263 264 264 256 257 257 256 251 252 251 250 252 249 243 240 239 240 244 247 250 254 255 258
238 236 234 229 231 226 225 224 222 222 226 229 238 248 264 269 256 260 259 256 257 260 260 260 254 250 250 250 247 245 241 242 244 246 247 250 254 255
240 244 244 243 248 241 234 226 221 219 218 220 228 234 239 244 246 251 260 269 265 258 264 258 252 249 245 247 247 245 242 242 243 244 247 249 250 250
238 260 274 239 221 231 229 226 228 225 226 227 233 236 242 247 251 246 250 261 266 252 265 269 260 259 257 256 257 249 246 244 245 243 247 252 254 251
243 248 263 265 242 230 220 218 231 256 253 243 243 248 253 250 247 249 248 252 261 277 262 266 258 264 267 268 262 248 250 252 252 251 254 255 257 255
251 250 247 250 249 234 244 253 254 257 255 251 251 257 264 263 249 252 258 267 285 278 258 266 267 270 276 269 260 261 260 253 253 258 261 261 262 262
273 274 266 262 238 224 235 245 254 260 259 245 268 283 300 293 267 250 246 250 264 258 249 264 274 280 277 271 268 262 262 260 260 261 261 260 262 266
290 286 288 273 259 238 246 251 253 255 252 247 248 265 268 261 246 244 243 245 261 259 225 248 267 282 280 274 279 275 261 257 261 262 261 257 257 261
268 279 283 284 271 271 267 263 264 263 254 249 254 263 265 259 251 253 253 251 253 259 244 246 261 259 261 281 288 283 280 277 269 263 256 252 252 251
273 278 278 270 261 262 263 272 273 269 253 240 244 252 255 256 261 261 264 270 274 269 263 249 250 255 259 268 272 278 276 275 272 268 266 259 253 252
277 283 286 288 277 266 268 269 259 255 247 244 248 256 261 265 267 276 287 289 289 292 269 257 252 252 251 255 267 274 281 277 269 267 271 267 261 257
280 266 268 274 272 279 271 254 251 254 251 250 259 266 263 258 255 261 268 272 274 278 285 277 265 253 256 261 260 267 267 265 266 270 275 273 269 262
287 273 260 255 253 258 259 254 250 251 256 267 260 257 259 258 261 263 265 262 260 269 275 280 280 275 263 259 260 258 261 265 267 269 270 271 269 266
277 258 248 249 251 260 266 266 261 257 261 260 257 254 253 253 258 261 259 257 263 266 266 271 278 282 269 255 240 255 260 267 273 270 268 269 272 269
268 258 252 252 253 253 260 262 261 263 260 253 252 252 252 253 254 254 252 256 260 264 265 261 256 254 262 270 250 228 255 268 271 266 262 263 270 274
266 268 267 263 260 260 259 261 261 257 253 252 252 249 249 251 251 252 251 254 259 264 263 256 249 247 256 274 279 270 254 256 258 263 268 274 277 280
290 273 270 268 265 263 262 264 262 260 258 255 253 249 245 247 251 251 253 253 256 257 258 260 261 265 275 265 262 263 265 254 259 263 270 275 280 279
302 288 277 275 272 267 265 263 260 258 255 251 253 249 245 245 248 249 249 251 252 256 264 269 265 253 246 247 261 274 281 285 275 268 262 256 262 267
304 298 291 281 274 271 266 262 260 259 256 253 253 251 246 246 247 247 249 249 252 253 259 265 265 260 258 259 264 272 278 285 286 286 280 274 268 270